Time,TemperatureF,DewpointF,PressureIn,WindDirection,WindDirectionDegrees,WindSpeedMPH,WindSpeedGustMPH,Humidity,HourlyPrecipIn,Conditions,Clouds,dailyrainin,SolarRadiationWatts/m^2,SoftwareType,DateUTC
2013-02-10 00:01:00,35.0,29.0,-100.00,SSW,212,3.0,7.0,77,0.00,,,0.00,0.000000,,2013-02-10 08:01:00,
2013-02-10 00:32:00,35.0,29.0,-100.00,WSW,248,3.0,8.0,77,0.00,,,0.00,0.000000,,2013-02-10 08:32:00,
2013-02-10 00:43:00,35.0,29.0,-100.00,WSW,248,3.0,8.0,77,0.00,,,0.00,0.000000,,2013-02-10 08:43:00,
2013-02-10 00:52:00,35.0,29.0,-100.00,WSW,248,3.0,8.0,77,0.00,,,0.00,0.000000,,2013-02-10 08:52:00,
2013-02-10 01:01:00,35.0,29.0,-100.00,WSW,248,3.0,8.0,77,0.00,,,0.00,0.000000,,2013-02-10 09:01:00,
2013-02-10 01:21:00,35.0,29.0,-100.00,WSW,243,3.0,11.0,77,0.00,,,0.00,0.000000,,2013-02-10 09:21:00,
2013-02-10 01:32:00,35.0,29.0,-100.00,WSW,243,3.0,11.0,77,0.00,,,0.00,0.000000,,2013-02-10 09:32:00,
2013-02-10 01:42:00,35.0,29.0,-100.00,WSW,243,3.0,11.0,77,0.00,,,0.00,0.000000,,2013-02-10 09:42:00,
2013-02-10 01:52:00,35.0,29.0,-100.00,WSW,243,3.0,11.0,77,0.00,,,0.00,0.000000,,2013-02-10 09:52:00,
2013-02-10 02:01:00,35.0,29.0,-100.00,WSW,243,3.0,11.0,77,0.00,,,0.00,0.000000,,2013-02-10 10:01:00,
2013-02-10 02:32:00,36.0,28.0,-100.00,WSW,237,4.0,8.0,73,0.00,,,0.00,0.000000,,2013-02-10 10:32:00,
2013-02-10 02:42:00,36.0,28.0,-100.00,WSW,237,4.0,8.0,73,0.00,,,0.00,0.000000,,2013-02-10 10:42:00,
2013-02-10 02:52:00,36.0,28.0,-100.00,WSW,237,4.0,8.0,73,0.00,,,0.00,0.000000,,2013-02-10 10:52:00,
2013-02-10 03:01:00,36.0,28.0,-100.00,WSW,237,4.0,8.0,73,0.00,,,0.00,0.000000,,2013-02-10 11:01:00,
2013-02-10 03:22:00,35.0,28.0,-100.00,SW,233,4.0,8.0,75,0.00,,,0.00,0.000000,,2013-02-10 11:22:00,
2013-02-10 03:32:00,35.0,28.0,-100.00,SW,233,4.0,8.0,75,0.00,,,0.00,0.000000,,2013-02-10 11:32:00,
2013-02-10 03:42:00,35.0,28.0,-100.00,SW,233,4.0,8.0,75,0.00,,,0.00,0.000000,,2013-02-10 11:42:00,
2013-02-10 03:52:00,35.0,28.0,-100.00,SW,233,4.0,8.0,75,0.00,,,0.00,0.000000,,2013-02-10 11:52:00,
2013-02-10 04:01:00,35.0,28.0,-100.00,SW,233,4.0,8.0,75,0.00,,,0.00,0.000000,,2013-02-10 12:01:00,
2013-02-10 07:32:00,32.0,27.0,-100.00,SSW,206,3.0,7.0,81,-99.99,,,0.00,1.000000,,2013-02-10 15:32:00,
2013-02-10 07:42:00,32.0,27.0,-100.00,SSW,206,3.0,7.0,81,-99.99,,,0.00,1.000000,,2013-02-10 15:42:00,
2013-02-10 07:52:00,32.0,27.0,-100.00,SSW,206,3.0,7.0,81,-99.99,,,0.00,1.000000,,2013-02-10 15:52:00,
2013-02-10 08:01:00,32.0,27.0,-100.00,SSW,206,3.0,7.0,81,-99.99,,,0.00,1.000000,,2013-02-10 16:01:00,
2013-02-10 08:32:00,35.0,28.0,-100.00,SW,219,4.0,9.0,74,0.00,,,0.00,40.000000,,2013-02-10 16:32:00,
2013-02-10 08:42:00,35.0,28.0,-100.00,SW,219,4.0,9.0,74,0.00,,,0.00,40.000000,,2013-02-10 16:42:00,
2013-02-10 08:52:00,35.0,28.0,-100.00,SW,219,4.0,9.0,74,0.00,,,0.00,40.000000,,2013-02-10 16:52:00,
2013-02-10 09:01:00,35.0,28.0,-100.00,SW,219,4.0,9.0,74,0.00,,,0.00,40.000000,,2013-02-10 17:01:00,
2013-02-10 09:32:00,41.0,27.0,-100.00,SSW,209,4.0,8.0,58,0.00,,,0.00,257.000000,,2013-02-10 17:32:00,
2013-02-10 09:42:00,41.0,27.0,-100.00,SSW,209,4.0,8.0,58,0.00,,,0.00,257.000000,,2013-02-10 17:42:00,
2013-02-10 09:52:00,41.0,27.0,-100.00,SSW,209,4.0,8.0,58,0.00,,,0.00,257.000000,,2013-02-10 17:52:00,
2013-02-10 10:01:00,41.0,27.0,-100.00,SSW,209,4.0,8.0,58,0.00,,,0.00,257.000000,,2013-02-10 18:01:00,
2013-02-10 10:32:00,49.0,30.0,-100.00,SSW,200,3.0,7.0,47,0.00,,,0.00,421.000000,,2013-02-10 18:32:00,
2013-02-10 10:42:00,49.0,30.0,-100.00,SSW,200,3.0,7.0,47,0.00,,,0.00,421.000000,,2013-02-10 18:42:00,
2013-02-10 10:52:00,49.0,30.0,-100.00,SSW,200,3.0,7.0,47,0.00,,,0.00,421.000000,,2013-02-10 18:52:00,
2013-02-10 11:01:00,49.0,30.0,-100.00,SSW,200,3.0,7.0,47,0.00,,,0.00,421.000000,,2013-02-10 19:01:00,
2013-02-10 11:32:00,58.0,27.0,-100.00,East,94,3.0,7.0,30,0.00,,,0.00,535.000000,,2013-02-10 19:32:00,
2013-02-10 11:43:00,58.0,27.0,-100.00,East,94,3.0,7.0,30,0.00,,,0.00,535.000000,,2013-02-10 19:43:00,
2013-02-10 11:52:00,58.0,27.0,-100.00,East,94,3.0,7.0,30,0.00,,,0.00,535.000000,,2013-02-10 19:52:00,
2013-02-10 12:01:00,58.0,27.0,-100.00,East,94,3.0,7.0,30,0.00,,,0.00,535.000000,,2013-02-10 20:01:00,
2013-02-10 12:22:00,60.0,25.0,-100.00,ESE,103,4.0,11.0,26,0.00,,,0.00,631.000000,,2013-02-10 20:22:00,
2013-02-10 12:32:00,60.0,25.0,-100.00,ESE,103,4.0,11.0,26,0.00,,,0.00,631.000000,,2013-02-10 20:32:00,
2013-02-10 12:42:00,60.0,25.0,-100.00,ESE,103,4.0,11.0,26,0.00,,,0.00,631.000000,,2013-02-10 20:42:00,
2013-02-10 12:52:00,60.0,25.0,-100.00,ESE,103,4.0,11.0,26,0.00,,,0.00,631.000000,,2013-02-10 20:52:00,
2013-02-10 13:02:00,60.0,25.0,-100.00,ESE,103,4.0,11.0,26,0.00,,,0.00,631.000000,,2013-02-10 21:02:00,
2013-02-10 13:32:00,61.0,25.0,-100.00,East,92,7.0,16.0,25,0.00,,,0.00,676.000000,,2013-02-10 21:32:00,
2013-02-10 13:42:00,61.0,25.0,-100.00,East,92,7.0,16.0,25,0.00,,,0.00,676.000000,,2013-02-10 21:42:00,
2013-02-10 13:52:00,61.0,25.0,-100.00,East,92,7.0,16.0,25,0.00,,,0.00,676.000000,,2013-02-10 21:52:00,
2013-02-10 14:01:00,61.0,25.0,-100.00,East,92,7.0,16.0,25,0.00,,,0.00,676.000000,,2013-02-10 22:01:00,
2013-02-10 14:32:00,62.0,23.0,-100.00,East,96,6.0,16.0,22,0.00,,,-99.99,640.000000,,2013-02-10 22:32:00,
2013-02-10 14:42:00,62.0,23.0,-100.00,East,96,6.0,16.0,22,0.00,,,-99.99,640.000000,,2013-02-10 22:42:00,
2013-02-10 14:52:00,62.0,23.0,-100.00,East,96,6.0,16.0,22,0.00,,,-99.99,640.000000,,2013-02-10 22:52:00,
2013-02-10 15:01:00,62.0,23.0,-100.00,East,96,6.0,16.0,22,0.00,,,-99.99,640.000000,,2013-02-10 23:01:00,
2013-02-10 15:22:00,63.0,24.0,-100.00,NNW,348,4.0,11.0,22,0.00,,,0.00,536.000000,,2013-02-10 23:22:00,
2013-02-10 15:32:00,63.0,24.0,-100.00,NNW,348,4.0,11.0,22,0.00,,,0.00,536.000000,,2013-02-10 23:32:00,
2013-02-10 15:42:00,63.0,24.0,-100.00,NNW,348,4.0,11.0,22,0.00,,,0.00,536.000000,,2013-02-10 23:42:00,
2013-02-10 15:52:00,63.0,24.0,-100.00,NNW,348,4.0,11.0,22,0.00,,,0.00,536.000000,,2013-02-10 23:52:00,
2013-02-10 16:01:00,63.0,24.0,-100.00,NNW,348,4.0,11.0,22,0.00,,,0.00,536.000000,,2013-02-11 00:01:00,
2013-02-10 16:32:00,62.0,27.0,-100.00,SE,143,3.0,14.0,26,0.00,,,0.00,381.000000,,2013-02-11 00:32:00,
2013-02-10 16:42:00,62.0,27.0,-100.00,SE,143,3.0,14.0,26,0.00,,,0.00,381.000000,,2013-02-11 00:42:00,
2013-02-10 16:52:00,62.0,27.0,-100.00,SE,143,3.0,14.0,26,0.00,,,0.00,381.000000,,2013-02-11 00:52:00,
2013-02-10 17:01:00,62.0,27.0,-100.00,SE,143,3.0,14.0,26,0.00,,,0.00,381.000000,,2013-02-11 01:01:00,
2013-02-10 17:32:00,55.0,29.0,-100.00,SW,226,1.0,6.0,37,0.00,,,-99.99,142.000000,,2013-02-11 01:32:00,
2013-02-10 17:42:00,55.0,29.0,-100.00,SW,226,1.0,6.0,37,0.00,,,-99.99,142.000000,,2013-02-11 01:42:00,
2013-02-10 17:52:00,55.0,29.0,-100.00,SW,226,1.0,6.0,37,0.00,,,-99.99,142.000000,,2013-02-11 01:52:00,
2013-02-10 18:01:00,55.0,29.0,-100.00,SW,226,1.0,6.0,37,0.00,,,-99.99,142.000000,,2013-02-11 02:01:00,
2013-02-10 18:32:00,46.0,31.0,-100.00,SW,228,2.0,4.0,56,0.00,,,0.00,8.000000,,2013-02-11 02:32:00,
2013-02-10 18:42:00,46.0,31.0,-100.00,SW,228,2.0,4.0,56,0.00,,,0.00,8.000000,,2013-02-11 02:42:00,
2013-02-10 18:52:00,46.0,31.0,-100.00,SW,228,2.0,4.0,56,0.00,,,0.00,8.000000,,2013-02-11 02:52:00,
2013-02-10 19:01:00,46.0,31.0,-100.00,SW,228,2.0,4.0,56,0.00,,,0.00,8.000000,,2013-02-11 03:01:00,
2013-02-10 19:21:00,42.0,31.0,-100.00,WSW,247,2.0,4.0,64,0.00,,,0.00,0.000000,,2013-02-11 03:21:00,
2013-02-10 19:32:00,42.0,31.0,-100.00,WSW,247,2.0,4.0,64,0.00,,,0.00,0.000000,,2013-02-11 03:32:00,
2013-02-10 19:42:00,42.0,31.0,-100.00,WSW,247,2.0,4.0,64,0.00,,,0.00,0.000000,,2013-02-11 03:42:00,
2013-02-10 19:52:00,42.0,31.0,-100.00,WSW,247,2.0,4.0,64,0.00,,,0.00,0.000000,,2013-02-11 03:52:00,
2013-02-10 20:01:00,42.0,31.0,-100.00,WSW,247,2.0,4.0,64,0.00,,,0.00,0.000000,,2013-02-11 04:01:00,
2013-02-10 20:32:00,41.0,31.0,-100.00,SW,217,3.0,5.0,68,0.00,,,0.00,0.000000,,2013-02-11 04:32:00,
2013-02-10 20:42:00,41.0,31.0,-100.00,SW,217,3.0,5.0,68,0.00,,,0.00,0.000000,,2013-02-11 04:42:00,
2013-02-10 20:52:00,41.0,31.0,-100.00,SW,217,3.0,5.0,68,0.00,,,0.00,0.000000,,2013-02-11 04:52:00,
2013-02-10 21:01:00,41.0,31.0,-100.00,SW,217,3.0,5.0,68,0.00,,,0.00,0.000000,,2013-02-11 05:01:00,
2013-02-10 21:22:00,40.0,31.0,-100.00,WSW,238,2.0,6.0,71,0.00,,,0.00,0.000000,,2013-02-11 05:22:00,
2013-02-10 21:32:00,40.0,31.0,-100.00,WSW,238,2.0,6.0,71,0.00,,,0.00,0.000000,,2013-02-11 05:32:00,
2013-02-10 21:42:00,40.0,31.0,-100.00,WSW,238,2.0,6.0,71,0.00,,,0.00,0.000000,,2013-02-11 05:42:00,
2013-02-10 21:52:00,40.0,31.0,-100.00,WSW,238,2.0,6.0,71,0.00,,,0.00,0.000000,,2013-02-11 05:52:00,
2013-02-10 22:01:00,40.0,31.0,-100.00,WSW,238,2.0,6.0,71,0.00,,,0.00,0.000000,,2013-02-11 06:01:00,
2013-02-10 22:32:00,38.0,31.0,-100.00,SW,217,3.0,5.0,75,0.00,,,0.00,0.000000,,2013-02-11 06:32:00,
2013-02-10 22:42:00,38.0,31.0,-100.00,SW,217,3.0,5.0,75,0.00,,,0.00,0.000000,,2013-02-11 06:42:00,
2013-02-10 22:52:00,38.0,31.0,-100.00,SW,217,3.0,5.0,75,0.00,,,0.00,0.000000,,2013-02-11 06:52:00,
2013-02-10 23:01:00,38.0,31.0,-100.00,SW,217,3.0,5.0,75,0.00,,,0.00,0.000000,,2013-02-11 07:01:00,
2013-02-10 23:32:00,38.0,31.0,-100.00,SSW,210,3.0,7.0,75,0.00,,,0.00,0.000000,,2013-02-11 07:32:00,
2013-02-10 23:42:00,38.0,31.0,-100.00,SSW,210,3.0,7.0,75,0.00,,,0.00,0.000000,,2013-02-11 07:42:00,
2013-02-10 23:52:00,38.0,31.0,-100.00,SSW,210,3.0,7.0,75,0.00,,,0.00,0.000000,,2013-02-11 07:52:00,